Theta_e
280 282 284 286 288 292 293 294 295 296 296 296 297 297 296 296 296 296 296 293 293 291 291 291 290 289 288 287 287 286 282 281 280 279 280 281 284 284 285 284 284 284 284
278 280 282 284 285 286 287 290 293 294 295 295 296 296 295 295 295 295 293 293 292 290 291 290 289 289 287 287 286 286 285 284 281 279 280 280 283 283 283 283 284 285 284
276 278 280 282 283 284 285 287 289 292 293 294 294 294 294 294 294 294 294 292 292 292 291 291 290 289 287 286 285 285 285 286 284 281 280 277 277 278 279 282 282 282 283
274 275 277 279 280 283 285 286 287 289 291 292 293 294 294 293 293 293 293 291 291 292 291 291 291 290 289 287 287 286 285 284 284 282 276 274 276 278 277 275 276 276 278
273 273 275 277 278 280 282 284 286 287 287 289 291 292 292 292 292 291 291 291 291 288 289 291 290 290 289 290 288 286 285 284 282 280 276 270 271 274 276 275 273 273 271
272 272 274 275 276 277 279 281 283 285 286 287 286 287 289 291 293 293 292 291 290 289 288 287 289 286 288 290 291 290 288 285 283 281 277 277 274 276 275 275 273 272 272
271 271 272 273 275 275 277 278 279 281 285 285 285 285 283 284 291 293 292 289 288 288 288 287 286 287 286 288 290 290 290 291 289 284 280 277 276 279 277 272 273 273 272
269 270 270 272 273 274 275 275 277 279 281 283 285 285 285 285 288 289 291 282 283 284 286 287 287 286 286 287 286 285 284 286 286 285 284 281 279 280 278 276 273 270 267
267 268 269 270 272 272 272 273 275 276 279 279 281 282 284 285 289 288 289 280 281 282 284 286 287 286 287 289 286 285 281 281 288 288 286 286 286 285 278 274 268 269 267
266 267 268 269 270 270 271 272 273 275 276 279 279 279 280 281 287 290 289 282 277 277 277 283 285 286 288 290 286 285 282 284 281 278 281 285 286 285 283 276 273 269 267
265 266 267 267 268 269 270 271 271 273 275 276 277 278 279 280 282 286 289 285 284 281 278 278 283 288 289 290 289 286 286 283 284 280 278 277 279 279 274 271 272 272 267
264 264 264 265 267 268 268 269 270 271 272 273 275 276 277 278 281 283 284 286 288 284 283 282 283 287 289 290 289 288 290 284 282 280 279 279 279 278 275 272 272 270 267
262 261 262 263 265 265 266 266 267 269 269 270 272 273 274 276 278 281 282 283 284 285 285 285 286 287 289 289 290 289 284 280 280 279 279 279 279 278 273 270 268 267 263
259 260 261 261 262 263 264 266 265 266 267 269 270 271 272 273 276 278 279 279 281 283 285 285 286 286 287 287 283 288 283 281 281 280 280 275 273 273 271 271 271 269 266
259 258 259 260 260 261 262 263 265 267 268 268 270 270 270 270 274 277 278 278 279 281 281 284 283 282 283 284 285 286 284 280 280 279 276 273 272 273 271 272 271 269 267
257 259 259 259 259 259 259 260 264 267 269 270 271 271 272 274 275 276 277 279 280 281 278 281 282 282 282 283 283 284 283 282 281 279 278 276 274 274 272 272 270 270 266
256 257 257 257 257 257 257 257 256 260 264 266 267 269 270 271 272 274 276 277 278 278 276 279 283 283 283 283 283 284 283 282 282 280 278 277 275 275 273 272 271 271 266
252 254 255 255 255 255 256 256 255 254 254 255 261 264 266 268 270 271 273 274 269 273 273 276 281 284 284 283 283 283 283 282 282 281 280 278 276 275 274 273 272 271 268
251 253 254 254 254 254 254 253 253 253 253 253 255 258 261 264 266 267 269 264 265 267 270 272 274 275 282 284 284 283 284 282 282 281 280 279 277 276 275 274 273 272 269
248 250 252 251 252 252 252 252 251 251 252 252 253 253 252 254 253 256 260 260 262 265 266 268 270 272 274 276 283 283 283 282 281 281 280 279 278 277 276 274 273 272 271
249 250 251 251 250 250 250 250 251 251 251 251 252 255 262 260 259 259 258 255 257 261 263 265 266 268 270 273 275 283 282 282 281 280 280 279 278 276 277 275 275 273 271
249 250 250 249 250 250 250 251 251 250 251 251 252 253 260 257 255 255 255 256 257 258 260 261 262 264 266 269 273 273 282 281 280 280 279 279 278 278 277 275 274 272 270
250 249 249 250 250 251 250 250 250 250 250 251 251 252 252 252 253 254 254 255 255 256 258 259 260 262 265 267 271 274 273 281 281 281 280 279 278 278 277 275 273 272 271
248 249 250 250 251 251 251 251 251 251 251 251 251 252 252 253 253 253 254 255 255 256 257 258 259 260 261 262 264 270 273 274 278 281 280 279 278 278 277 275 273 273 272
248 249 249 249 250 250 250 250 250 250 250 251 251 251 252 252 252 253 254 254 255 255 255 256 258 257 257 259 260 262 266 270 271 272 281 280 279 278 277 276 274 273 273
252 251 251 251 251 251 250 250 250 251 250 251 251 251 251 252 252 253 253 253 254 254 255 256 256 256 256 258 260 262 265 270 271 273 276 281 279 278 277 276 274 273 272
Wind_Speed
18 16 16 15 14 9 6 3 5 6 7 9 11 10 10 11 12 12 11 10 13 10 8 11 10 7 5 4 4 3 3 4 4 3 0 1 2 4 3 2 3 5 4
17 15 16 15 15 13 11 10 5 3 4 7 8 9 9 10 11 12 12 11 13 12 12 10 10 7 7 6 4 5 5 4 4 5 2 2 4 2 3 4 4 3 4
16 16 17 17 17 16 14 12 11 4 4 4 6 8 9 9 9 10 11 10 12 12 13 14 12 12 9 6 5 6 4 3 3 3 3 1 1 0 2 4 4 3 2
16 16 17 17 16 15 14 14 13 12 5 4 5 7 8 9 9 10 10 10 11 11 10 13 12 15 14 12 9 8 6 5 4 3 2 2 2 1 1 1 3 1 3
16 17 18 16 16 15 16 15 13 13 11 9 3 4 5 5 7 8 9 10 10 8 8 10 11 12 14 14 9 8 8 5 3 3 2 2 1 1 3 2 1 3 2
16 17 17 17 18 17 16 16 14 13 12 11 10 7 3 3 8 12 12 9 9 10 10 8 8 10 11 17 15 16 15 12 7 4 3 4 3 3 2 3 1 3 4
16 17 18 17 17 17 16 16 16 15 12 11 9 9 7 6 11 9 12 5 7 9 9 9 7 7 10 10 13 15 14 14 7 9 6 6 4 6 5 2 2 2 3
15 16 16 16 15 15 15 16 16 14 14 12 10 9 7 6 14 14 9 3 4 5 7 9 10 9 11 12 11 9 8 9 7 6 6 6 4 7 4 4 4 1 1
15 15 14 15 14 14 16 16 14 13 13 13 13 14 13 9 16 13 7 4 4 5 5 6 8 9 13 17 12 11 6 5 6 9 7 10 13 15 11 5 2 3 2
14 14 13 13 13 12 12 13 13 12 11 10 11 12 13 12 20 18 8 2 2 2 1 3 9 9 18 21 13 12 11 11 8 5 5 9 11 10 13 4 5 3 2
10 11 12 11 12 12 11 10 11 10 10 10 10 10 11 13 15 26 22 3 1 1 1 2 3 12 17 21 18 11 13 10 13 8 6 4 5 7 4 3 4 4 3
7 9 9 11 10 10 11 10 10 10 9 9 9 8 8 10 17 20 23 22 13 1 2 2 2 11 14 19 17 15 13 13 8 7 7 6 6 5 4 4 4 3 2
9 7 8 9 9 10 10 9 7 7 7 7 7 7 8 9 8 19 20 22 20 7 3 4 7 10 14 12 18 15 12 7 8 7 9 7 7 6 7 5 4 3 2
10 10 8 7 7 7 6 6 6 6 6 7 7 7 7 7 7 9 9 9 14 11 12 5 4 5 7 7 4 10 7 7 8 8 7 4 5 6 4 4 3 3 3
7 7 8 7 8 7 7 6 7 6 8 8 7 8 9 8 7 16 15 10 9 10 11 3 1 1 3 4 5 5 7 6 7 5 5 6 5 6 4 5 3 3 3
8 8 6 5 6 8 7 7 10 14 15 16 18 15 8 16 19 21 20 19 19 18 7 6 2 2 4 5 6 6 6 8 7 6 6 7 8 8 7 6 3 4 4
7 9 6 7 7 7 7 9 10 7 14 16 16 18 20 20 21 20 20 20 19 13 4 5 5 3 4 5 6 6 6 7 7 7 7 8 8 7 10 8 6 5 3
6 8 6 5 5 6 6 7 7 9 10 7 10 15 19 21 20 20 20 18 8 5 4 6 6 4 5 5 5 6 5 7 8 7 7 8 9 9 9 9 8 7 4
6 6 6 5 5 6 6 6 6 7 8 8 6 8 10 18 21 20 18 3 6 7 6 4 5 6 6 5 5 5 6 7 8 8 8 8 9 9 9 8 8 10 7
5 9 7 5 6 6 5 6 6 7 8 8 7 7 3 6 4 6 4 2 3 6 6 6 6 5 6 8 4 5 5 6 7 7 8 8 8 9 9 10 9 10 8
4 5 7 6 6 6 6 7 7 6 7 7 8 9 20 11 8 6 5 2 2 6 7 7 7 6 6 7 8 5 6 6 7 7 7 8 8 9 9 8 9 9 8
5 6 5 6 6 6 7 7 7 8 8 8 8 9 21 9 7 7 7 7 7 6 6 7 7 7 7 7 8 7 6 7 7 7 8 8 9 9 9 9 9 9 10
5 6 6 6 6 8 8 7 8 8 9 9 9 9 8 8 8 8 8 8 7 7 6 7 8 8 7 6 7 7 7 7 8 9 9 9 9 9 10 10 11 10 11
5 6 8 8 7 8 8 9 8 11 11 10 9 9 10 10 10 10 9 8 8 7 7 7 7 9 8 7 6 7 7 7 8 8 12 9 9 11 9 10 12 13 12
5 7 7 8 8 8 9 9 10 10 10 10 10 10 10 10 10 11 10 9 9 9 8 7 8 9 10 12 12 13 14 17 12 13 8 11 12 14 11 10 12 12 14
8 9 8 8 8 9 9 10 10 10 10 10 10 10 11 11 11 11 10 10 9 10 11 9 9 11 11 11 13 12 12 15 13 11 11 9 11 11 11 12 17 12 16
Wind_Direction
2 4 11 10 11 20 9 331 174 159 158 169 178 178 176 179 183 185 188 176 185 177 182 188 198 168 180 181 171 153 140 129 123 296 305 37 179 228 248 255 266 273 276
358 4 15 14 15 20 14 358 346 268 171 175 176 178 181 187 187 189 187 184 187 183 188 180 194 169 179 176 171 179 176 146 126 162 187 208 215 247 252 284 264 255 274
3 6 14 17 17 16 12 5 358 299 214 199 166 177 184 188 185 196 195 187 192 196 188 190 188 173 183 173 176 177 166 144 125 124 156 127 244 283 312 273 260 276 267
8 13 16 13 11 9 11 15 12 6 329 234 204 198 188 185 187 192 192 189 194 198 190 192 184 187 186 182 187 182 154 151 148 121 125 154 171 195 186 241 323 304 303
9 14 15 11 13 11 9 12 14 19 13 349 280 223 202 183 187 182 190 192 191 180 182 187 189 190 186 184 174 172 160 150 142 145 129 97 224 179 181 197 268 285 313
7 12 6 10 13 14 10 8 10 12 16 18 14 349 255 212 211 198 190 191 188 187 188 186 179 171 177 176 180 178 179 170 179 153 153 185 209 180 154 150 131 23 331
6 6 5 3 7 9 9 11 10 4 7 15 16 16 4 341 347 227 204 192 184 193 189 181 177 184 169 172 180 177 186 191 177 165 165 184 170 185 141 127 151 151 242
15 9 1 359 1 1 8 8 5 5 6 7 10 10 18 17 6 351 232 158 170 184 185 184 187 178 182 171 168 173 187 193 185 172 169 166 151 148 132 149 143 140 0
10 5 358 353 354 0 4 360 358 358 5 9 11 14 15 12 9 1 340 158 162 185 180 176 177 177 183 172 170 182 173 199 179 174 166 149 148 144 137 113 84 79 321
1 351 349 347 347 1 357 356 350 352 352 358 7 11 10 7 1 15 17 108 143 165 157 169 189 184 178 181 180 177 184 200 157 130 139 145 144 153 156 127 143 141 164
343 342 339 334 344 354 350 354 350 348 349 357 0 0 6 7 5 15 17 19 279 250 203 202 209 204 187 189 188 182 199 145 173 149 140 129 128 132 126 126 135 132 147
331 333 323 338 343 347 346 346 351 349 352 352 353 356 355 354 5 9 12 13 12 296 234 222 213 210 200 198 190 196 174 145 144 153 159 166 167 158 147 146 142 130 94
337 335 332 332 335 338 339 340 346 351 350 346 348 347 348 348 348 357 2 2 1 357 335 268 238 217 212 207 201 190 154 151 155 169 187 183 179 145 124 106 84 100 89
329 329 332 325 329 326 330 330 329 339 342 336 336 337 334 337 337 348 347 345 347 355 346 323 253 210 189 191 186 187 171 174 174 179 175 122 118 134 136 141 142 138 105
318 315 316 323 324 319 316 314 314 313 308 313 324 325 321 322 325 328 326 329 326 331 337 298 255 142 166 179 186 188 174 165 178 156 142 144 145 150 141 156 117 141 155
301 307 309 302 306 310 308 299 299 302 308 315 313 306 304 310 316 318 317 314 317 328 328 311 240 201 198 190 190 191 180 182 185 165 159 162 162 167 156 159 131 159 161
296 300 295 299 301 303 313 315 318 318 313 311 310 311 308 308 313 313 312 312 310 319 286 289 287 218 213 201 196 194 186 186 174 177 173 171 160 162 160 173 169 162 156
280 282 284 285 286 294 302 306 309 312 317 312 311 309 306 310 310 311 312 318 321 316 313 323 318 262 219 209 202 197 183 176 180 182 182 176 168 166 170 176 175 176 150
285 289 292 290 279 272 277 277 276 282 287 293 299 292 295 305 310 303 301 312 299 296 298 298 316 315 306 215 207 202 192 186 188 183 181 183 177 171 180 179 170 170 145
254 253 260 264 275 276 268 265 270 273 282 287 289 282 257 284 284 283 264 264 295 294 301 305 306 304 309 318 240 200 198 191 191 191 190 185 180 182 179 168 171 170 180
253 254 245 251 251 256 258 261 261 259 260 263 273 283 288 288 297 289 280 268 269 285 292 299 305 306 305 306 312 239 200 197 195 196 190 186 181 183 179 174 171 166 155
249 261 256 246 254 253 252 250 256 262 269 272 274 272 284 293 284 275 272 268 262 260 269 275 276 279 283 290 307 316 270 197 194 196 197 189 183 184 176 167 167 160 154
246 255 258 257 255 261 260 253 253 253 257 257 262 268 266 261 260 256 252 254 255 257 257 260 264 267 269 270 277 289 283 290 199 190 195 191 185 183 175 173 169 163 161
258 263 267 270 268 264 262 263 259 257 258 262 261 259 261 266 263 259 260 260 257 252 249 254 258 267 278 285 289 291 294 290 325 209 189 191 190 183 175 173 171 171 163
238 249 251 257 258 259 263 259 259 256 254 252 255 255 257 257 259 261 261 256 256 258 254 244 252 252 253 261 263 268 274 283 291 308 228 190 193 186 178 175 172 168 163
252 248 251 252 254 253 252 256 256 254 251 249 246 246 248 249 251 254 253 250 250 249 250 251 247 244 249 258 261 260 263 267 268 267 284 202 189 187 178 175 175 172 165